STARLINK-32402, 61708

Orbit data source: Space-Track

STARLINK-32402, 61708 is a payload satellite owned by SpaceX/Seattle (US) in LEO that was launched on Wed, 30 Oct 2024 UTC via an FALCON 9 launch vehicle from the Air Force Eastern Test Range (AFETR). Payload-class satellites include a variety of spacecraft equipped with specific instruments for various scientific and technological missions. These include communications satellites like Starlink; space stations such as the ISS; scientific satellites like the Hubble; Earth observation satellites from companies like Planet Labs, Umbra, and HawkEye 360; GPS; miniature CubeSats for education and research; and military/defense satellites.

Loading next visibility...
Identifier
61708, 2024-196B
Orbit
LEO
Last TLE update
15 hours ago
Origin
Manufacturer
SpaceX/Seattle
Mission
Operational Commercial Communications
Bus & Motor
STARLINK V2M, Unknown motor
Mass
730 kg wet, ~700 kg dry
Launch date (UTC)
2024-10-30 (8 months ago)
Launch vehicle
FALCON 9
Launch site
Air Force Eastern Test Range (AFETR)
Object type
Payload
Rocket body
Debris
Shape & HBR
Box + 2 Pan, 29 m
Radar Cross Section
36.964 m², Large (>1 m²)

Expand to show TLE details & history

TLE from 15 hours ago
0 STARLINK-32402
1 61708U 24196B   25181.74957514 -.00000307  00000-0  17527-5 0  9991
2 61708  53.1594 191.5609 0001090  85.4930 274.6196 15.30192022 38585
Epoch: 2025-06-30T17:59Z
TLE epoch observation values (Epoch: 2025-06-30T17:59:23.292Z)
Latitude
0.00006°
Longitude
2.65898°
Altitude
476.078 km
Speed
7.629 km/s
True Right ascension
12h 46m 14s
True Declination
0° 00' 00"
Sunlit
Object was in daylight at epoch
Visualization orbit readout
Latitude
51.7344°
Longitude
109.00731°
Altitude
480.731 km
Speed
7.632 km/s
Apparent Right ascension
10h 02m 58s
Apparent Declination
60° 00' 41"
Sunlit
Object is in daylight
Visualization observer readout
Local Sidereal Time
20:10:33
Azimuth
346.041° N
Elevation
12.568°
Doppler factor
1
Orbital elements
Apogee altitude
476.242 km
Perigee altitude
474.748 km
Semi-major axis
6,853.632 km
Eccentricity
0.00011
Inclination
53.1594°
RAAN
191.5609°
Arg. of periapsis
85.493°
True anomaly
Unknown
Mean anomaly
274.6196°
Eccentric anomaly
Unknown
Mean motion
3.82527 °/min
Orbital period
94.11 mins
BSTAR
0.0000017527
Loading maneuver chart data...
Loading SW <> Apogee altitude chart data...
Loading historical data...
Loading historical data...
Loading historical data...
Loading historical data...
Loading historical data...
Loading historical data...
Loading historical data...

STARLINK-32402 Visibility forecast

Observer location: undefined°, undefined°

Span
Click to sort rows by Start time (UTC) header in descending order
Start Az.
Max El. time (UTC)
Max El. Az.
Max El.
End time (UTC)
End Az.
4 mins2025-07-01 08:32:25.323Z345.94° N2025-07-01 08:34:25.323Z23.284° NE16.288°2025-07-01 08:36:25.323Z58.862° ENE
5 mins2025-07-01 10:10:25.323Z315.01° NNW2025-07-01 10:12:25.323Z350.107° N43.305°2025-07-01 10:15:25.323Z124.468° SE
5 mins2025-07-02 03:06:25.323Z221.7° SW2025-07-02 03:08:25.323Z85.422° E43.701°2025-07-02 03:11:25.323Z52.454° ENE
|